Weather History for KGEY - March, 2014

Change the Weather History Date:

Saturday, March 8, 2014

  Actual Average Record
Temperature  
Mean Temperature 40 °F 34 °F  
Max Temperature 51 °F 47 °F 64 °F (2004)
Min Temperature 29 °F 20 °F -7 °F (2002)
Degree Days  
Heating Degree Days 25 31  
Month to date heating degree days 313 262  
Since 1 July heating degree days 6200 6233  
Cooling Degree Days 0 0  
Month to date cooling degree days 0 0  
Year to date cooling degree days 0 0  
Moisture  
Dew Point 30 °F    
Average Humidity 67    
Maximum Humidity 92    
Minimum Humidity 42    
Precipitation  
Precipitation 0.00 in 0.00 in 0.08 in (2005)
Month to date precipitation T 0.06  
Year to date precipitation 0.26 0.47  
Sea Level Pressure  
Sea Level Pressure 30.24 in    
Wind  
Wind Speed 6 mph (SE)    
Max Wind Speed 16 mph    
Max Gust Speed 21 mph    
Visibility 10 miles    
Events      
T = Trace of Precipitation, MM = Missing Value Source: NWS Daily Summary

Daily Weather History Graph

Daily Weather History Graph

Search for Another Location

Airport or City:

Trip Planner

Search our weather history database for the weather conditions in past years. The results will help you decide how hot, cold, wet, or windy it might be!

Date:

Astronomy

Mar. 08, 2014 Rise Set
Actual Time 6:37 AM MST 6:09 PM MST
Civil Twilight 6:08 AM MST 6:38 PM MST
Nautical Twilight 5:34 AM MST 7:12 PM MST
Astronomical Twilight 5:00 AM MST 7:46 PM MST
Moon 11:06 AM MST (3/8) 1:24 AM MST (3/8)
Length of Visible Light 12h 30m
Length of Day
11h 32m
First Quarter, 52% of the Moon is Illuminated
Mar 8
First Quarter
Mar 16
Full
Mar 23
Last Quarter
Mar 30
New
Apr 7
First Quarter

Hourly Weather History & Observations

Time (MST) Temp. Windchill Dew Point Humidity Pressure Visibility Wind Dir Wind Speed Gust Speed Precip Events Conditions
12:53 AM 30.9 °F 26.2 °F 28.9 °F 92% 30.25 in 10.0 mi ESE 4.6 mph - N/A   Clear
1:53 AM 32.0 °F 27.5 °F 28.9 °F 88% 30.26 in 10.0 mi East 4.6 mph - N/A   Clear
2:53 AM 30.0 °F 23.2 °F 28.0 °F 92% 30.26 in 10.0 mi ESE 6.9 mph - N/A   Clear
3:53 AM 30.0 °F 24.1 °F 27.0 °F 88% 30.26 in 10.0 mi SSE 5.8 mph - N/A   Clear
4:53 AM 30.0 °F 24.1 °F 26.1 °F 85% 30.29 in 10.0 mi ESE 5.8 mph - N/A   Clear
5:53 AM 30.0 °F 24.1 °F 26.1 °F 85% 30.31 in 10.0 mi SE 5.8 mph - N/A   Clear
6:53 AM 28.9 °F 23.9 °F 25.0 °F 85% 30.31 in 10.0 mi ESE 4.6 mph - N/A   Clear
7:53 AM 32.0 °F - 27.0 °F 82% 30.31 in 10.0 mi Calm Calm - N/A   Clear
8:53 AM 37.9 °F - 30.0 °F 73% 30.31 in 10.0 mi Calm Calm - N/A   Clear
9:53 AM 41.0 °F - 30.0 °F 65% 30.32 in 10.0 mi Calm Calm - N/A   Clear
10:53 AM 43.0 °F 38.2 °F 32.0 °F 65% 30.30 in 10.0 mi South 8.1 mph - N/A   Clear
11:53 AM 46.9 °F - 32.0 °F 56% 30.28 in 10.0 mi South 9.2 mph - N/A   Clear
12:53 PM 48.9 °F - 33.1 °F 54% 30.26 in 10.0 mi SSE 8.1 mph - N/A   Clear
1:53 PM 50.0 °F - 32.0 °F 50% 30.22 in 10.0 mi SSE 12.7 mph - N/A   Clear
2:53 PM 51.1 °F - 33.1 °F 50% 30.20 in 10.0 mi SSE 12.7 mph - N/A   Clear
3:53 PM 50.0 °F - 28.9 °F 44% 30.18 in 10.0 mi SSE 15.0 mph - N/A   Clear
4:53 PM 50.0 °F - 30.0 °F 46% 30.19 in 10.0 mi SSE 8.1 mph - N/A   Clear
5:53 PM 46.9 °F - 32.0 °F 56% 30.20 in 10.0 mi East 6.9 mph - N/A   Clear
6:53 PM 42.1 °F 38.4 °F 32.0 °F 67% 30.20 in 10.0 mi East 5.8 mph - N/A   Clear
7:53 PM 39.9 °F 35.1 °F 30.0 °F 68% 30.19 in 10.0 mi East 6.9 mph - N/A   Clear
8:53 PM 37.9 °F 34.4 °F 30.9 °F 76% 30.17 in 10.0 mi SE 4.6 mph - N/A   Clear
9:53 PM 37.9 °F 35.5 °F 30.0 °F 73% 30.14 in 10.0 mi SE 3.5 mph - N/A   Clear
10:53 PM 34.0 °F - 28.9 °F 82% 30.14 in 10.0 mi Calm Calm - N/A   Clear
11:53 PM 34.0 °F - 28.9 °F 82% 30.12 in 10.0 mi Calm Calm - N/A   Clear